Date String (YYYY-MM-DD hh:mm:ss) UTC,Instrument flags,Ambient pressure (hPa),Sample flow (lpm),Bypass flow (lpm),Sample temperature (°C),Ambient temperature (°C),ASC tube jacket temperature (°C),LED temperature (°C),Box temperature (°C),Sample RH (%),Span deviation,Mass concentration (μg/m³),Mass concentration (μg/m³),Mass concentration (μg/m³)
DateTimeUTC,F1_M11,P_M11,Q1_M11,Q2_M11,T1_M11,T2_M11,T3_M11,T4_M11,T5_M11,U1_M11,ZSPAN_M11,X2_M11,X0_M11,X1_M11
2023-01-25 07:00:00,,0824.4,5.00,0.00,22.8,21.5,00.0,31.5,24.5,09.7,-002.0,0012.28,0017.71,0011.81
2023-01-25 07:01:00,,0824.5,4.98,0.00,22.8,21.2,00.0,31.5,24.4,09.7,-002.0,0012.36,0017.82,0011.89
2023-01-25 07:02:00,,0824.6,5.00,0.00,22.7,21.0,00.0,31.5,24.4,09.8,-001.9,0012.44,0017.90,0011.99
2023-01-25 07:03:00,,0824.6,5.00,0.00,22.7,20.9,00.0,31.5,24.3,09.7,-001.9,0012.50,0017.99,0012.04
2023-01-25 07:04:00,,0824.8,5.00,0.00,22.6,20.8,00.0,31.5,24.3,09.7,-002.0,0012.54,0018.09,0012.09
2023-01-25 07:05:00,,0824.7,5.01,0.00,22.6,20.8,00.0,31.5,24.3,09.7,-002.0,0012.57,0017.74,0012.13
2023-01-25 07:06:00,,0824.8,4.99,0.00,22.6,21.0,00.0,31.4,24.3,09.9,-001.9,0012.60,0017.52,0012.16
2023-01-25 07:07:00,,0824.6,5.00,0.00,22.6,22.0,00.0,31.4,24.5,09.8,-001.8,0012.65,0017.65,0012.17
2023-01-25 07:08:00,,0824.8,5.00,0.00,22.7,22.9,00.0,31.5,24.7,09.8,-001.7,0012.70,0017.73,0012.21
2023-01-25 07:09:00,,0824.8,5.00,0.00,22.8,23.0,00.0,31.5,24.8,09.7,-001.8,0012.71,0017.74,0012.22
2023-01-25 07:10:00,,0824.6,4.99,0.00,22.9,22.6,00.0,31.5,24.8,09.7,-001.7,0012.75,0017.79,0012.24
2023-01-25 07:11:00,,0824.4,4.99,0.00,22.8,22.3,00.0,31.5,24.7,09.7,-001.6,0012.72,0018.06,0012.20
2023-01-25 07:12:00,,0824.6,5.02,0.00,22.8,21.9,00.0,31.5,24.6,09.8,-001.7,0012.75,0018.52,0012.22
2023-01-25 07:13:00,,0824.8,5.00,0.00,22.8,21.6,00.0,31.5,24.5,09.8,-001.9,0012.78,0018.79,0012.25
2023-01-25 07:14:00,,0824.8,4.98,0.00,22.8,21.4,00.0,31.5,24.5,09.8,-002.0,0012.81,0019.86,0012.30
2023-01-25 07:15:00,,0825.0,5.03,0.00,22.8,21.3,00.0,31.5,24.5,09.9,-002.2,0012.88,0019.92,0012.36
2023-01-25 07:16:00,,0824.8,5.01,0.00,22.7,21.2,00.0,31.5,24.5,09.9,-002.1,0012.93,0019.93,0012.40
2023-01-25 07:17:00,,0824.9,5.01,0.00,22.7,21.2,00.0,31.5,24.4,09.9,-002.0,0012.93,0019.69,0012.40
2023-01-25 07:18:00,,0824.7,5.01,0.00,22.7,21.1,00.0,31.5,24.4,09.9,-002.0,0012.93,0019.59,0012.42
2023-01-25 07:19:00,,0824.7,5.01,0.00,22.7,21.0,00.0,31.5,24.4,09.9,-002.0,0012.93,0020.14,0012.42
2023-01-25 07:20:00,,0824.8,4.99,0.00,22.7,21.0,00.0,31.5,24.4,09.9,-002.1,0012.97,0020.48,0012.45
2023-01-25 07:21:00,,0824.7,5.01,0.00,22.7,21.0,00.0,31.5,24.4,09.8,-002.3,0013.00,0020.68,0012.46
2023-01-25 07:22:00,,0824.6,4.98,0.00,22.6,20.9,00.0,31.5,24.3,09.8,-002.4,0013.01,0020.47,0012.50
2023-01-25 07:23:00,,0824.5,5.00,0.00,22.6,20.9,00.0,31.5,24.3,09.9,-002.3,0013.01,0019.94,0012.50
2023-01-25 07:24:00,,0824.5,5.02,0.00,22.6,20.9,00.0,31.5,24.3,09.9,-002.2,0013.01,0019.78,0012.48
2023-01-25 07:25:00,,0824.6,5.00,0.00,22.6,21.4,00.0,31.4,24.4,09.9,-002.1,0013.03,0018.77,0012.47
2023-01-25 07:26:00,,0824.7,5.00,0.00,22.7,22.4,00.0,31.4,24.6,09.9,-001.7,0013.03,0018.50,0012.47
2023-01-25 07:27:00,,0824.7,5.00,0.00,22.8,23.2,00.0,31.5,24.8,09.8,-001.7,0013.00,0018.50,0012.47
2023-01-25 07:28:00,,0824.6,4.98,0.00,22.9,23.0,00.0,31.5,24.8,09.8,-001.7,0012.99,0018.64,0012.47
2023-01-25 07:29:00,,0824.6,5.02,0.00,22.9,22.6,00.0,31.5,24.8,09.7,-001.6,0013.00,0019.06,0012.47
2023-01-25 07:30:00,,0824.7,5.02,0.00,22.9,22.2,00.0,31.5,24.7,09.6,-001.5,0013.01,0018.44,0012.46
2023-01-25 07:31:00,,0824.7,5.00,0.00,22.9,22.0,00.0,31.5,24.7,09.6,-001.4,0012.96,0018.41,0012.43
2023-01-25 07:32:00,,0824.8,5.00,0.00,22.8,21.8,00.0,31.5,24.6,09.6,-001.3,0012.91,0018.82,0012.40
2023-01-25 07:33:00,,0824.9,5.01,0.00,22.8,21.6,00.0,31.6,24.6,09.5,-001.3,0012.91,0018.99,0012.38
2023-01-25 07:34:00,,0824.7,5.00,0.00,22.8,21.5,00.0,31.5,24.6,09.5,-001.4,0012.88,0019.00,0012.35
2023-01-25 07:35:00,,0824.5,4.99,0.00,22.8,21.4,00.0,31.5,24.5,09.5,-001.5,0012.85,0019.03,0012.33
2023-01-25 07:36:00,,0824.4,5.00,0.00,22.8,21.2,00.0,31.5,24.5,09.5,-001.7,0012.81,0018.96,0012.32
2023-01-25 07:37:00,,0824.5,5.00,0.00,22.7,21.2,00.0,31.5,24.5,09.5,-001.9,0012.77,0018.97,0012.28
2023-01-25 07:38:00,,0824.5,5.00,0.00,22.7,21.1,00.0,31.5,24.4,09.5,-002.0,0012.72,0019.11,0012.21
2023-01-25 07:39:00,,0824.5,4.98,0.00,22.7,21.1,00.0,31.5,24.4,09.5,-001.9,0012.69,0020.14,0012.16
2023-01-25 07:40:00,,0824.4,4.99,0.00,22.7,21.0,00.0,31.5,24.4,09.5,-001.9,0012.68,0021.00,0012.11
2023-01-25 07:41:00,,0824.4,5.00,0.00,22.7,21.0,00.0,31.5,24.4,09.5,-002.0,0012.63,0021.00,0012.05
2023-01-25 07:42:00,,0824.6,4.99,0.00,22.7,21.0,00.0,31.5,24.4,09.5,-002.1,0012.62,0021.13,0012.01
2023-01-25 07:43:00,,0824.5,5.01,0.00,22.7,21.0,00.0,31.5,24.3,09.5,-002.2,0012.60,0020.76,0011.98
2023-01-25 07:44:00,,0824.6,5.02,0.00,22.6,21.0,00.0,31.5,24.3,09.4,-002.0,0012.60,0020.38,0011.97
2023-01-25 07:45:00,,0824.4,4.99,0.00,22.6,21.3,00.0,31.5,24.4,09.4,-001.8,0012.61,0021.29,0011.95
2023-01-25 07:46:00,,0824.6,4.99,0.00,22.7,22.2,00.0,31.4,24.6,09.4,-001.8,0012.59,0022.32,0011.92
2023-01-25 07:47:00,,0824.5,5.00,0.00,22.8,23.1,00.0,31.5,24.8,09.4,-001.8,0012.57,0023.01,0011.88
2023-01-25 07:48:00,,0824.5,4.99,0.00,22.9,23.1,00.0,31.5,24.9,09.3,-001.8,0012.57,0023.43,0011.84
2023-01-25 07:49:00,,0824.6,4.99,0.00,22.9,22.7,00.0,31.5,24.8,09.3,-001.8,0012.57,0023.47,0011.82
2023-01-25 07:50:00,,0824.4,5.01,0.00,22.9,22.3,00.0,31.5,24.7,09.3,-001.8,0012.61,0022.86,0011.83
2023-01-25 07:51:00,,0824.4,4.99,0.00,22.9,22.0,00.0,31.6,24.7,09.4,-001.9,0012.61,0021.93,0011.84
2023-01-25 07:52:00,,0824.4,5.00,0.00,22.9,21.8,00.0,31.6,24.6,09.4,-002.0,0012.64,0022.41,0011.86
2023-01-25 07:53:00,,0824.4,5.00,0.00,22.8,21.6,00.0,31.6,24.6,09.4,-001.9,0012.62,0022.57,0011.87
2023-01-25 07:54:00,,0824.6,5.00,0.00,22.8,21.4,00.0,31.6,24.6,09.4,-002.0,0012.61,0022.84,0011.85
2023-01-25 07:55:00,,0824.6,4.99,0.00,22.8,21.2,00.0,31.6,24.5,09.4,-002.0,0012.64,0023.58,0011.86
2023-01-25 07:56:00,,0824.5,5.01,0.00,22.8,21.0,00.0,31.6,24.4,09.5,-002.1,0012.68,0023.33,0011.90
2023-01-25 07:57:00,,0824.7,5.00,0.00,22.7,20.8,00.0,31.5,24.3,09.5,-002.1,0012.70,0022.64,0011.92
2023-01-25 07:58:00,,0824.5,5.02,0.00,22.6,20.5,00.0,31.5,24.2,09.5,-001.8,0012.76,0022.32,0011.97
2023-01-25 07:59:00,,0824.5,4.99,0.00,22.6,20.3,00.0,31.5,24.1,09.6,-001.6,0012.84,0022.19,0012.07
